Location: Chippewa Lake
(41.0698°N, 81.9010°W)
Time: 22:06:44
(UTC+00:00)

Cosmos 1626 - Pass Details

Date: 09 May 2021
Orbit: 489 x 492 km, 82.5° (Epoch: 16 June)

Event Time Altitude Azimuth Distance (km) Brightness Sun altitude
Exits shadow 07:25:04 16° 106° (ESE) 1,360 4.5 -25.1°
Maximum altitude 07:25:58 17° 88° (E) 1,305 4.6 -25.0°
Drops below altitude 10° 07:28:25 10° 46° (NE) 1,691 5.8 -24.8°
Sets 07:31:04 0° 26° (NNE) 2,578 7.1 -24.5°
